Tracking 28125 objects as of 3-Oct-2023
HD Live streaming from Space Station
objects crossing your sky now

STARLINK-5635

Track STARLINK-5635 now!
10-day predictions
STARLINK-5635 is classified as:


NORAD ID: 55367
Int'l Code: 2023-013AN
Perigee: 565.4 km
Apogee: 567.0 km
Inclination: 43.0 °
Period: 95.8 minutes
Semi major axis: 6937 km
RCS: Unknown
Launch date: January 26, 2023
Source: United States (US)
Launch site: AIR FORCE EASTERN TEST RANGE (AFETR)
Your satellite tracking list
Your tracking list is empty




NASA's NSSDC Master Catalog

Two Line Element Set (TLE):
1 55367U 23013AN  23275.16601117 -.00002177  00000-0 -14612-3 0  9993
2 55367  43.0031  80.5934 0001189 288.9093  71.1620 15.02536932 38482
Source of the keplerian elements: AFSPC